Content
SEND FEEDBACK

Daily
Averages
Monthly
Summary
United States of America

GLENVIEW, ILLINOIS


Home > North America > United States > Illinois
Elevation: 653 feet     Latitude: 42 05N     Longitude: 087 50W

WEATHER
 
SELECT A DAY
Number of Records: 195,110;   Date Range: 7/8/95 - 9/18/14
 
SHARE

PRINT THIS DATA

[ ← Previous Day ]
WEATHER ALMANAC - JANUARY 28, 2013
[ Next Day → ]
[ °C ]   °F
Weather ElementAverageHighLow
Temperature42.3 °F48 °F (6:52 am)37 °F (12:52 am)
Dewpoint39.8 °F46.9 °F (7:52 am)35.1 °F (5:52 pm)
Humidity91.2 %100 % (1:26 am)76 % (1:59 pm)
Barometer29.90 in29.98 in (5:52 pm)29.81 in (4:49 am)
Wind Speed7.4 mph13.8 mph (3:52 am)
Wind Gust20.7 mph (3:17 am)
Weather ElementAverage
Visibility4.7 mi
Wind DirectionS (182.1 °)

Weather ElementTotal
Precipitation0.18 in
Heating Degree Days22.5 (Base 65)
Averaged from 42 records on January 28, 2013
WEATHER CONDITIONS BREAKOUT
WIND DIRECTION BREAKOUT
WEATHER BY HOUR - JANUARY 28, 2013
[ °C ]   °F
Local TimeTemperatureDewpointHumidityBarometerVisibilityWind DirectionWind SpeedGust SpeedPrecipitationEventsConditions
12:52 AM37.0 °F36.0 °F96 %29.90 in2.5 miSouth (180°)9.2 mph0.02 inOvercast
1:26 AM37.4 °F37.4 °F100 %29.86 in1.8 miSouth (190°)11.5 mph0.02 inOvercast
1:52 AM37.9 °F37.9 °F100 %29.88 in1.5 miSouth (190°)11.5 mph0.04 inOvercast
2:52 AM41.0 °F39.9 °F96 %29.86 in2.0 miSouth (190°)11.5 mph0.03 inRainLight Rain
3:17 AM42.8 °F41.0 °F93 %29.83 in3.0 miSSW (200°)11.5 mph20.7 mph0.00 inOvercast
3:35 AM42.8 °F42.8 °F100 %29.83 in2.5 miSSW (200°)12.7 mph0.00 inRainLight Rain
3:52 AM43.0 °F42.1 °F97 %29.84 in2.0 miSSW (200°)13.8 mph0.01 inRainLight Rain
4:22 AM44.6 °F42.8 °F93 %29.82 in2.5 miSSW (200°)11.5 mph0.01 inRainLight Rain
4:49 AM44.6 °F44.6 °F100 %29.81 in3.0 miSSW (200°)13.8 mph0.02 inRainLight Rain
4:52 AM45.0 °F44.1 °F97 %29.83 in2.5 miSSW (200°)12.7 mph0.02 inRainLight Rain
5:52 AM46.0 °F45.0 °F96 %29.83 in2.0 miSSW (210°)8.1 mph0.00 inRainLight Rain
6:52 AM48.0 °F46.0 °F93 %29.85 in1.0 miSW (230°)11.5 mph17.3 mph0.01 inOvercast
7:52 AM48.0 °F46.9 °F96 %29.87 in1.0 miWSW (240°)8.1 mph16.1 mphOvercast
8:52 AM48.0 °F46.0 °F93 %29.89 in1.0 miWest (270°)10.4 mphOvercast
8:59 AM46.4 °F46.4 °F100 %29.88 in2.0 miWest (270°)13.8 mphOvercast
9:52 AM45.0 °F44.1 °F97 %29.92 in2.0 miWNW (300°)10.4 mphOvercast
10:33 AM44.6 °F42.8 °F93 %29.92 in6.0 miWest (270°)5.8 mphOvercast
10:52 AM45.0 °F41.0 °F86 %29.94 in9.0 miWest (260°)8.1 mphOvercast
11:52 AM45.0 °F39.9 °F82 %29.95 in10.0 miNW (310°)8.1 mphOvercast
12:52 PM46.0 °F39.9 °F79 %29.94 in10.0 miWNW (300°)5.8 mphOvercast
1:24 PM44.6 °F39.2 °F81 %29.92 inNNW (340°)4.6 mph
1:52 PM46.9 °F39.9 °F77 %29.93 in10.0 miNNW (330°)4.6 mphMostly Cloudy
1:59 PM46.4 °F39.2 °F76 %29.92 in10.0 miNW (320°)3.5 mphOvercast
2:52 PM46.0 °F39.0 °F76 %29.96 in10.0 miWest (260°)3.5 mphMostly Cloudy
3:14 PM46.4 °F39.2 °F76 %29.95 in10.0 miWest (260°)3.5 mphScattered Clouds
3:52 PM46.0 °F39.0 °F76 %29.96 in10.0 miCalmClear
4:52 PM41.0 °F37.0 °F86 %29.96 in9.0 miCalmClear
5:50 PM39.2 °F35.6 °F87 %29.96 in9.0 miEast (80°)3.5 mphMostly Cloudy
5:52 PM39.0 °F35.1 °F86 %29.98 in9.0 miCalmMostly Cloudy
6:11 PM37.4 °F35.6 °F93 %29.97 in9.0 miEast (100°)4.6 mphOvercast
6:52 PM39.0 °F36.0 °F89 %29.98 in8.0 miEast (100°)3.5 mphOvercast
7:52 PM39.0 °F36.0 °F89 %29.98 in8.0 miSE (130°)4.6 mphOvercast
8:22 PM39.2 °F35.6 °F87 %29.95 in7.0 miEast (90°)5.8 mphOvercast
8:52 PM39.0 °F37.0 °F93 %29.96 in5.0 miEast (100°)3.5 mphOvercast
9:30 PM39.2 °F37.4 °F93 %29.94 in2.5 miESE (110°)5.8 mphOvercast
9:43 PM39.2 °F37.4 °F93 %29.93 in1.5 miESE (120°)5.8 mphOvercast
9:52 PM39.0 °F37.9 °F96 %29.94 in1.2 miESE (120°)4.6 mphOvercast
10:02 PM37.4 °F37.4 °F100 %29.92 in1.5 miESE (110°)6.9 mphOvercast
10:52 PM37.9 °F37.9 °F100 %29.88 in1.0 miESE (120°)9.2 mphOvercast
11:09 PM37.4 °F37.4 °F100 %29.86 in1.2 miEast (100°)9.2 mphOvercast
11:49 PM39.2 °F37.4 °F93 %29.82 in1.2 miESE (120°)9.2 mph0.00 inRain-ThunderstormLight Rain
11:52 PM39.0 °F37.9 °F96 %29.84 in1.2 miSE (130°)6.9 mph0.00 inThunderstormOvercast
Hourly data recorded from KPWK, located miles away from Glenview, Illinois







STORIES FROM OUR PARTNERS